TimeEDT,TemperatureF,Dew PointF,Humidity,Sea Level PressureIn,VisibilityMPH,Wind Direction,Wind SpeedMPH,Gust SpeedMPH,PrecipitationIn,Events,Conditions,WindDirDegrees,DateUTC
12:51 AM,54.0,48.0,80,29.94,10.0,NE,4.6,-,N/A,,Partly Cloudy,50,2012-10-17 04:51:00
1:51 AM,54.0,48.0,80,29.94,10.0,Calm,Calm,-,N/A,,Mostly Cloudy,0,2012-10-17 05:51:00
2:51 AM,53.1,48.9,86,29.94,10.0,NNE,3.5,-,N/A,,Clear,20,2012-10-17 06:51:00
3:51 AM,55.0,48.9,80,29.94,10.0,NNE,3.5,-,N/A,,Clear,20,2012-10-17 07:51:00
4:51 AM,55.0,48.0,77,29.94,10.0,NNE,3.5,-,N/A,,Clear,20,2012-10-17 08:51:00
5:51 AM,54.0,48.0,80,29.95,10.0,NE,3.5,-,N/A,,Clear,40,2012-10-17 09:51:00
6:51 AM,53.1,48.0,83,29.98,10.0,NE,3.5,-,N/A,,Clear,40,2012-10-17 10:51:00
7:51 AM,59.0,50.0,72,29.99,10.0,NNE,3.5,-,N/A,,Clear,30,2012-10-17 11:51:00
8:51 AM,62.1,51.1,67,30.01,10.0,NNE,3.5,-,N/A,,Clear,30,2012-10-17 12:51:00
9:51 AM,64.0,51.1,63,30.02,10.0,NNE,4.6,-,N/A,,Clear,30,2012-10-17 13:51:00
10:51 AM,63.0,51.1,65,30.01,10.0,NE,5.8,-,N/A,,Clear,40,2012-10-17 14:51:00
11:51 AM,66.9,52.0,59,30.01,10.0,Variable,5.8,-,N/A,,Clear,0,2012-10-17 15:51:00
12:51 PM,66.9,52.0,59,30.01,10.0,NNE,8.1,-,N/A,,Clear,30,2012-10-17 16:51:00
1:51 PM,66.9,53.1,61,29.99,10.0,NE,8.1,-,N/A,,Clear,40,2012-10-17 17:51:00
2:51 PM,66.9,53.1,61,29.99,10.0,NNE,6.9,-,N/A,,Clear,20,2012-10-17 18:51:00
3:51 PM,66.0,54.0,65,29.98,10.0,NE,4.6,-,N/A,,Clear,40,2012-10-17 19:51:00
4:51 PM,64.9,52.0,63,29.98,10.0,NE,6.9,-,N/A,,Clear,50,2012-10-17 20:51:00
5:51 PM,63.0,52.0,67,29.98,10.0,ENE,3.5,-,N/A,,Clear,60,2012-10-17 21:51:00
6:51 PM,61.0,51.1,70,29.98,10.0,ENE,4.6,-,N/A,,Clear,60,2012-10-17 22:51:00
7:51 PM,62.1,51.1,67,29.99,10.0,NE,4.6,-,N/A,,Clear,50,2012-10-17 23:51:00
8:51 PM,61.0,51.1,70,30.00,10.0,East,3.5,-,N/A,,Clear,80,2012-10-18 00:51:00
9:51 PM,61.0,48.9,64,30.00,10.0,ENE,4.6,-,N/A,,Clear,70,2012-10-18 01:51:00
10:51 PM,61.0,50.0,67,29.99,10.0,ENE,5.8,-,N/A,,Clear,70,2012-10-18 02:51:00
11:51 PM,62.1,51.1,67,29.98,10.0,ENE,4.6,-,N/A,,Clear,60,2012-10-18 03:51:00